(236023) = 2005 GK122

Discovered at Mount Lemmon on 2005-04-06 by Mt. Lemmon Survey.

Orbit

Orbit type: Main Belt

Note: WebGL enabled browser required.

epoch2024-03-31.0
epoch JD2460400.5
perihelion date2020-05-08.33149
perihelion JD2458977.83149
argument of perihelion (°)92.79417
ascending node (°)192.36922
inclination (°)4.65421
eccentricity0.1362875
perihelion distance (AU)2.4044580
Tisserand w.r.t. Jupiter3.3
ΔV w.r.t. Earth (km/sec)9.8
semimajor axis (AU)2.7838639
mean anomaly (°)301.88085
mean daily motion (°/day)0.21219340
aphelion distance (AU)3.163
period (years)4.64
P-vector [x]0.26086699
P-vector [y]-0.91482530
P-vector [z]-0.30829057
Q-vector [x]0.96521827
Q-vector [y]0.24141743
Q-vector [z]0.10035598
absolute magnitude16.58
phase slope0.15
uncertainty0
referenceMPEC 2024-F14
observations used383
oppositions18
arc length (days)10200
first opposition used1996
last opposition used2024
residual rms (arc-secs)0.74
perturbers coarse indicatorM-v
perturbers precise indicator003Ek
first observation date used1996-04-13.0
last observation date used2024-03-17.0
computer nameMPCLINUX
JD of orbit computation2456789.213213
perihelion JD uncertainty (days)9.2037E-05
argument of perihelion uncertainty (°)4.3369E-05
ascending node uncertainty (°)3.8026E-05
inclination uncertainty (°)4.9899E-06
eccentricity uncertainty 3.1079E-08
perihelion distance uncertainty (AU)8.1674E-08
Minimum Orbit Intersection Distances (in AU)
for orbit epoch: 2460400.5, reference: E2024-G51
Mercury1.95447
Venus1.68298
Earth1.39359
Mars0.96615
Jupiter1.98642
Saturn5.8988
Uranus15.4334
Neptune26.8228

Observations

395 total observations over interval: 1996 04 13.33091 – 2024 03 17.597549
These data are available for download (format description).

Date (UT) J2000 RA J2000 Dec Magn Location Ref
1996 04 13.33091 13 37 19.27 -08 27 49.0 20.1 V 691 – Steward Observatory, Kitt Peak-Spacewatch MPS 229009
1996 04 13.35254 13 37 18.21 -08 27 40.4   691 – Steward Observatory, Kitt Peak-Spacewatch MPS 229009
1996 04 13.37492 13 37 17.08 -08 27 31.4   691 – Steward Observatory, Kitt Peak-Spacewatch MPS 229009
2002 10 02.94325 01 19 43.38 +07 49 25.2 19.9 V 049 – Uppsala-Kvistaberg MPS 229009
2002 10 02.95566 01 19 42.79 +07 49 20.8 20.3 V 049 – Uppsala-Kvistaberg MPS 229009
2002 10 02.96834 01 19 42.17 +07 49 16.4 20.2 V 049 – Uppsala-Kvistaberg MPS 229009
2005 03 16.39509 11 46 11.87 -00 40 35.5 20.3 V 691 – Steward Observatory, Kitt Peak-Spacewatch MPS 133374
2005 03 16.42112 11 46 10.59 -00 40 25.0 20.3 V 691 – Steward Observatory, Kitt Peak-Spacewatch MPS 133374
2005 03 16.44639 11 46 09.35 -00 40 15.1 20.7 V 691 – Steward Observatory, Kitt Peak-Spacewatch MPS 133374
2005 04 06.25142 11 30 38.30 +01 35 34.9 19.7 R G96 – Mt. Lemmon Survey MPS 131884
2005 04 06.25741 11 30 38.07 +01 35 36.6 19.4 R G96 – Mt. Lemmon Survey MPS 131884
2005 04 06.26339 11 30 37.83 +01 35 39.5 20.2 R G96 – Mt. Lemmon Survey MPS 131884
2005 04 06.26941 11 30 37.59 +01 35 41.5 20.6 R G96 – Mt. Lemmon Survey MPS 131884
2005 04 11.25782 11 27 39.05 +02 04 04.4 20.6 R 695 – Kitt Peak MPS 133137
2005 04 11.37035 11 27 35.17 +02 04 40.7   695 – Kitt Peak MPS 133137
2005 04 12.19527 11 27 08.58 +02 09 05.3 20.0 R G96 – Mt. Lemmon Survey MPS 131884
2005 04 12.20192 11 27 08.35 +02 09 07.1 20.6 R G96 – Mt. Lemmon Survey MPS 131884
2005 04 12.20861 11 27 08.13 +02 09 09.5 19.8 R G96 – Mt. Lemmon Survey MPS 131884
2005 04 12.21530 11 27 07.91 +02 09 11.5 20.0 R G96 – Mt. Lemmon Survey MPS 131884
2005 05 04.18571 11 20 36.18 +03 30 41.2 20.4 R G96 – Mt. Lemmon Survey MPS 133374
2005 05 04.19496 11 20 36.12 +03 30 42.0 21.0 R G96 – Mt. Lemmon Survey MPS 133374
2005 05 04.20429 11 20 36.09 +03 30 43.3 19.8 R G96 – Mt. Lemmon Survey MPS 133374
2005 05 04.21361 11 20 36.05 +03 30 44.5 19.8 R G96 – Mt. Lemmon Survey MPS 133374
2006 05 04.45072 20 12 29.41 -14 13 02.4 20.3 V G96 – Mt. Lemmon Survey MPS 175728
2006 05 04.45541 20 12 29.62 -14 13 00.5 20.6 V G96 – Mt. Lemmon Survey MPS 175728
2006 05 04.46010 20 12 29.88 -14 12 59.1 20.1 V G96 – Mt. Lemmon Survey MPS 175728
2006 05 30.38250 20 26 41.92 -12 24 41.3 20.3 V G96 – Mt. Lemmon Survey MPS 175728
2006 05 30.38811 20 26 41.96 -12 24 40.5 20.2 V G96 – Mt. Lemmon Survey MPS 175728
2006 05 30.39369 20 26 42.03 -12 24 39.6 20.1 V G96 – Mt. Lemmon Survey MPS 175728
2006 05 30.39943 20 26 42.07 -12 24 38.3 20.1 V G96 – Mt. Lemmon Survey MPS 175728
2006 06 19.41991 20 25 42.78 -11 45 20.5 20.2 V 691 – Steward Observatory, Kitt Peak-Spacewatch MPS 178514
2006 06 19.43734 20 25 42.38 -11 45 19.7 20.4 V 691 – Steward Observatory, Kitt Peak-Spacewatch MPS 178514
2006 06 19.45476 20 25 42.03 -11 45 18.9 20.3 V 691 – Steward Observatory, Kitt Peak-Spacewatch MPS 178514
2007 10 08.45260 03 43 26.79 +16 18 32.1 20.6 V G96 – Mt. Lemmon Survey MPS 218678
2007 10 08.45754 03 43 26.65 +16 18 31.3 20.8 V G96 – Mt. Lemmon Survey MPS 218678
2007 10 08.46262 03 43 26.54 +16 18 30.0 21.0 V G96 – Mt. Lemmon Survey MPS 218678
2007 10 08.46755 03 43 26.40 +16 18 29.2 21.0 V G96 – Mt. Lemmon Survey MPS 218678
2007 10 10.43572 03 42 39.13 +16 11 58.0 21.1 V G96 – Mt. Lemmon Survey MPS 218678
2007 10 10.44249 03 42 38.91 +16 11 56.7 21.3 V G96 – Mt. Lemmon Survey MPS 218678
2007 10 10.44927 03 42 38.77 +16 11 55.0 21.7 V G96 – Mt. Lemmon Survey MPS 218678
2007 10 10.45615 03 42 38.62 +16 11 54.0 21.7 V G96 – Mt. Lemmon Survey MPS 218678
2007 10 21.42197 03 36 38.53 +15 30 34.6   691 – Steward Observatory, Kitt Peak-Spacewatch MPS 222531
2007 10 21.43960 03 36 37.82 +15 30 29.6   691 – Steward Observatory, Kitt Peak-Spacewatch MPS 222531
2007 10 21.45722 03 36 37.09 +15 30 25.4   691 – Steward Observatory, Kitt Peak-Spacewatch MPS 222531
2007 11 18.23669 03 13 49.00 +13 27 00.4 20.1 V G96 – Mt. Lemmon Survey MPS 228289
2007 11 18.24329 03 13 48.64 +13 26 58.5 19.9 V G96 – Mt. Lemmon Survey MPS 228289
2007 11 18.24991 03 13 48.28 +13 26 56.9 19.8 V G96 – Mt. Lemmon Survey MPS 228289
2007 11 18.25650 03 13 47.96 +13 26 55.1 20.0 V G96 – Mt. Lemmon Survey MPS 228289
2007 11 20.16230 03 12 09.70 +13 18 52.2 20.4 V 691 – Steward Observatory, Kitt Peak-Spacewatch MPS 229009
2007 11 20.17990 03 12 08.77 +13 18 47.9 20.4 V 691 – Steward Observatory, Kitt Peak-Spacewatch MPS 229009
2007 11 20.19751 03 12 07.86 +13 18 43.8 20.4 V 691 – Steward Observatory, Kitt Peak-Spacewatch MPS 229009
2009 01 29.94188 08 18 30.93 +13 13 09.8 20.7   A77 – Observatoire Chante-Perdrix, Dauban MPS 272590
2009 01 29.96612 08 18 29.50 +13 13 15.3 19.9   A77 – Observatoire Chante-Perdrix, Dauban MPS 272590
2009 01 29.99035 08 18 28.24 +13 13 20.6 20.8   A77 – Observatoire Chante-Perdrix, Dauban MPS 272590
2010 02 18.49949 14 23 50.20 -13 41 34.2 21.0 V G96 – Mt. Lemmon Survey MPS 313192
2010 02 18.50548 14 23 50.42 -13 41 35.0 21.0 V G96 – Mt. Lemmon Survey MPS 313192
2010 02 18.51150 14 23 50.56 -13 41 36.0 20.3 V G96 – Mt. Lemmon Survey MPS 313192
2010 02 18.51748 14 23 50.74 -13 41 35.2 20.9 V G96 – Mt. Lemmon Survey MPS 313192
2010 03 13.41798 14 28 10.09 -13 20 54.6 20.9 V G96 – Mt. Lemmon Survey MPS 317911
2010 03 13.42503 14 28 10.02 -13 20 53.5 21.2 V G96 – Mt. Lemmon Survey MPS 317911
2010 03 13.43233 14 28 09.94 -13 20 52.8 21.1 V G96 – Mt. Lemmon Survey MPS 317911
2010 03 13.43956 14 28 09.91 -13 20 51.5 21.2 V G96 – Mt. Lemmon Survey MPS 317911
2010 03 20.42323 14 26 52.42 -12 59 56.3 20.6 V 691 – Steward Observatory, Kitt Peak-Spacewatch MPS 319321
2010 03 20.44095 14 26 52.11 -12 59 52.2 20.9 V 691 – Steward Observatory, Kitt Peak-Spacewatch MPS 319321
2010 03 20.45866 14 26 51.82 -12 59 49.2 20.7 V 691 – Steward Observatory, Kitt Peak-Spacewatch MPS 319321
2010 04 11.34888 14 15 33.30 -11 14 44.3 20.6 V G96 – Mt. Lemmon Survey MPS 323378
2010 04 11.35618 14 15 32.94 -11 14 41.6 20.2 V G96 – Mt. Lemmon Survey MPS 323378
2010 04 11.36359 14 15 32.65 -11 14 39.0 20.2 V G96 – Mt. Lemmon Survey MPS 323378
2010 04 11.37098 14 15 32.29 -11 14 36.4 20.2 V G96 – Mt. Lemmon Survey MPS 323378
2010 04 14.26554 14 13 24.43 -10 57 20.0 20.3 V 691 – Steward Observatory, Kitt Peak-Spacewatch MPS 323378
2010 04 14.28318 14 13 23.61 -10 57 13.6 20.1 V 691 – Steward Observatory, Kitt Peak-Spacewatch MPS 323378
2010 04 14.30084 14 13 22.76 -10 57 07.3 20.2 V 691 – Steward Observatory, Kitt Peak-Spacewatch MPS 323378
2010 04 17.31756 14 11 03.51 -10 38 40.2 19.6 V G96 – Mt. Lemmon Survey MPS 324815
2010 04 17.32350 14 11 03.30 -10 38 37.3 19.5 V G96 – Mt. Lemmon Survey MPS 324815
2010 04 17.32944 14 11 02.94 -10 38 35.5 19.9 V G96 – Mt. Lemmon Survey MPS 324815
2010 04 17.33541 14 11 02.65 -10 38 33.3 19.7 V G96 – Mt. Lemmon Survey MPS 324815
2010 05 19.26021 13 47 34.83 -07 39 24.5 20.4 V G96 – Mt. Lemmon Survey MPS 328543
2010 05 19.26554 13 47 34.65 -07 39 23.0 20.3 V G96 – Mt. Lemmon Survey MPS 328543
2010 05 19.27325 13 47 34.36 -07 39 19.7 19.2 V G96 – Mt. Lemmon Survey MPS 328543
2010 05 19.27856 13 47 34.29 -07 39 19.0 19.3 V G96 – Mt. Lemmon Survey MPS 328543
2011 06 10.43995 23 08 39.12 -01 15 16.3 21.2 V G96 – Mt. Lemmon Survey MPS 385302
2011 06 10.44514 23 08 39.40 -01 15 13.9 21.5 V G96 – Mt. Lemmon Survey MPS 385302
2011 06 10.45031 23 08 39.66 -01 15 12.0 20.9 V G96 – Mt. Lemmon Survey MPS 385302
2011 06 10.45556 23 08 39.94 -01 15 09.9 20.9 V G96 – Mt. Lemmon Survey MPS 385302
2011 08 06.58461 23 28 07.331 +00 55 15.49 20.9 g F51 – Pan-STARRS 1, Haleakala MPS 388345
2011 08 06.58609 23 28 07.299 +00 55 15.30 21.0 g F51 – Pan-STARRS 1, Haleakala MPS 388345
2011 08 06.58757 23 28 07.276 +00 55 15.02 21.0 g F51 – Pan-STARRS 1, Haleakala MPS 388345
2011 08 06.59205 23 28 07.173 +00 55 14.32 21.1 g F51 – Pan-STARRS 1, Haleakala MPS 388345
2011 08 06.59354 23 28 07.137 +00 55 14.03 21.0 g F51 – Pan-STARRS 1, Haleakala MPS 388345
2011 08 09.59309 23 27 02.812 +00 46 36.89 20.9 r F51 – Pan-STARRS 1, Haleakala MPS 388580
2011 08 09.59457 23 27 02.754 +00 46 36.46 20.9 r F51 – Pan-STARRS 1, Haleakala MPS 388580
